Time,TemperatureF,DewpointF,PressureIn,WindDirection,WindDirectionDegrees,WindSpeedMPH,WindSpeedGustMPH,Humidity,HourlyPrecipIn,Conditions,Clouds,dailyrainin,SolarRadiationWatts/m^2,SoftwareType,DateUTC
2013-02-27 00:09:00,26.1,16.0,30.23,WNW,302,21.0,-999.0,65,-99.99,,,0.00,0,weatherlink.com 1.10,2013-02-27 07:09:00,
2013-02-27 00:25:00,25.9,16.0,30.23,WNW,292,15.0,-999.0,65,-99.99,,,0.00,0,weatherlink.com 1.10,2013-02-27 07:25:00,
2013-02-27 00:40:00,25.6,15.0,30.24,WNW,296,20.0,-999.0,65,-99.99,,,0.00,0,weatherlink.com 1.10,2013-02-27 07:40:00,
2013-02-27 00:55:00,25.7,15.0,30.24,WNW,298,17.0,-999.0,65,-99.99,,,0.00,0,weatherlink.com 1.10,2013-02-27 07:55:00,
2013-02-27 01:10:00,25.6,15.0,30.25,WNW,291,15.0,-999.0,65,-99.99,,,0.00,0,weatherlink.com 1.10,2013-02-27 08:10:00,
2013-02-27 01:25:00,25.1,15.0,30.25,WNW,299,12.0,-999.0,65,-99.99,,,0.00,0,weatherlink.com 1.10,2013-02-27 08:25:00,
2013-02-27 01:40:00,24.4,14.0,30.25,WNW,293,14.0,-999.0,66,-99.99,,,0.00,0,weatherlink.com 1.10,2013-02-27 08:40:00,
2013-02-27 01:56:00,24.2,14.0,30.26,NW,304,12.0,-999.0,66,-99.99,,,0.00,0,weatherlink.com 1.10,2013-02-27 08:56:00,
2013-02-27 02:12:00,24.0,13.0,30.25,NW,323,11.0,-999.0,64,-99.99,,,0.00,0,weatherlink.com 1.10,2013-02-27 09:12:00,
2013-02-27 02:26:00,23.9,13.0,30.25,WNW,298,17.0,-999.0,64,-99.99,,,0.00,0,weatherlink.com 1.10,2013-02-27 09:26:00,
2013-02-27 02:41:00,24.0,13.0,30.25,NW,322,15.0,-999.0,63,-99.99,,,0.00,0,weatherlink.com 1.10,2013-02-27 09:41:00,
2013-02-27 02:57:00,23.7,13.0,30.25,NW,304,15.0,-999.0,63,-99.99,,,0.00,0,weatherlink.com 1.10,2013-02-27 09:57:00,
2013-02-27 03:12:00,23.7,12.0,30.26,NNW,329,17.0,-999.0,62,-99.99,,,0.00,0,weatherlink.com 1.10,2013-02-27 10:12:00,
2013-02-27 03:28:00,23.5,12.0,30.26,NW,313,16.0,-999.0,62,-99.99,,,0.00,0,weatherlink.com 1.10,2013-02-27 10:28:00,
2013-02-27 03:43:00,23.2,12.0,30.26,NW,309,15.0,-999.0,62,-99.99,,,0.00,0,weatherlink.com 1.10,2013-02-27 10:43:00,
2013-02-27 03:57:00,23.4,12.0,30.27,NW,309,16.0,-999.0,62,-99.99,,,0.00,0,weatherlink.com 1.10,2013-02-27 10:57:00,
2013-02-27 04:12:00,23.1,11.0,30.27,NW,321,17.0,-999.0,61,-99.99,,,0.00,0,weatherlink.com 1.10,2013-02-27 11:12:00,
2013-02-27 04:29:00,23.3,12.0,30.28,NW,310,19.0,-999.0,62,-99.99,,,0.00,0,weatherlink.com 1.10,2013-02-27 11:29:00,
2013-02-27 04:43:00,23.2,11.0,30.28,NNW,335,16.0,-999.0,61,-99.99,,,0.00,0,weatherlink.com 1.10,2013-02-27 11:43:00,
2013-02-27 04:59:00,22.1,11.0,30.29,NNW,337,15.0,-999.0,62,-99.99,,,0.00,0,weatherlink.com 1.10,2013-02-27 11:59:00,
2013-02-27 05:14:00,21.3,11.0,30.29,NW,312,14.0,-999.0,64,-99.99,,,0.00,0,weatherlink.com 1.10,2013-02-27 12:14:00,
2013-02-27 05:29:00,21.5,11.0,30.30,WNW,300,13.0,-999.0,64,-99.99,,,0.00,0,weatherlink.com 1.10,2013-02-27 12:29:00,
2013-02-27 05:45:00,20.6,10.0,30.30,WNW,296,13.0,-999.0,65,-99.99,,,0.00,0,weatherlink.com 1.10,2013-02-27 12:45:00,
2013-02-27 05:59:00,19.7,10.0,30.30,NW,304,11.0,-999.0,66,-99.99,,,0.00,0,weatherlink.com 1.10,2013-02-27 12:59:00,
2013-02-27 06:14:00,19.5,10.0,30.30,WNW,298,12.0,-999.0,67,-99.99,,,0.00,0,weatherlink.com 1.10,2013-02-27 13:14:00,
2013-02-27 06:30:00,19.3,10.0,30.30,WNW,292,13.0,-999.0,67,-99.99,,,0.00,0,weatherlink.com 1.10,2013-02-27 13:30:00,
2013-02-27 06:45:00,18.3,9.0,30.30,WNW,296,14.0,-999.0,68,-99.99,,,0.00,7,weatherlink.com 1.10,2013-02-27 13:45:00,
2013-02-27 07:00:00,18.7,10.0,30.31,WNW,303,13.0,-999.0,68,-99.99,,,0.00,23,weatherlink.com 1.10,2013-02-27 14:00:00,
2013-02-27 07:15:00,20.6,10.0,30.32,NW,306,12.0,-999.0,65,-99.99,,,0.00,70,weatherlink.com 1.10,2013-02-27 14:15:00,
2013-02-27 07:30:00,21.2,10.0,30.33,WNW,302,13.0,-999.0,62,-99.99,,,0.00,100,weatherlink.com 1.10,2013-02-27 14:30:00,
2013-02-27 07:46:00,22.1,11.0,30.33,WNW,294,11.0,-999.0,62,-99.99,,,0.00,200,weatherlink.com 1.10,2013-02-27 14:46:00,
2013-02-27 08:16:00,23.5,12.0,30.34,WNW,288,8.0,-999.0,61,-99.99,,,0.00,315,weatherlink.com 1.10,2013-02-27 15:16:00,
2013-02-27 08:32:00,25.2,13.0,30.34,WNW,298,7.0,-999.0,60,-99.99,,,0.00,364,weatherlink.com 1.10,2013-02-27 15:32:00,
2013-02-27 08:47:00,27.4,14.0,30.34,WNW,293,9.0,-999.0,58,-99.99,,,0.00,408,weatherlink.com 1.10,2013-02-27 15:47:00,
2013-02-27 09:02:00,29.6,14.0,30.34,WNW,294,13.0,-999.0,52,-99.99,,,0.00,454,weatherlink.com 1.10,2013-02-27 16:02:00,
2013-02-27 09:17:00,31.5,13.0,30.34,NW,306,12.0,-999.0,47,-99.99,,,0.00,496,weatherlink.com 1.10,2013-02-27 16:17:00,
2013-02-27 09:33:00,32.2,12.0,30.33,NNW,338,10.0,-999.0,44,-99.99,,,0.00,536,weatherlink.com 1.10,2013-02-27 16:33:00,
2013-02-27 09:48:00,33.2,13.0,30.33,NNW,344,6.0,-999.0,44,-99.99,,,0.00,570,weatherlink.com 1.10,2013-02-27 16:48:00,
2013-02-27 10:03:00,34.3,12.0,30.33,NW,317,16.0,-999.0,40,-99.99,,,0.00,605,weatherlink.com 1.10,2013-02-27 17:03:00,
2013-02-27 10:19:00,35.0,13.0,30.33,NW,313,13.0,-999.0,41,-99.99,,,0.00,636,weatherlink.com 1.10,2013-02-27 17:19:00,
2013-02-27 10:33:00,35.4,12.0,30.32,NW,309,10.0,-999.0,38,-99.99,,,0.00,659,weatherlink.com 1.10,2013-02-27 17:33:00,
2013-02-27 10:49:00,36.2,12.0,30.32,NW,306,12.0,-999.0,37,-99.99,,,0.00,684,weatherlink.com 1.10,2013-02-27 17:49:00,
2013-02-27 11:05:00,36.6,12.0,30.31,NNW,330,14.0,-999.0,36,-99.99,,,0.00,703,weatherlink.com 1.10,2013-02-27 18:05:00,
2013-02-27 11:19:00,36.9,13.0,30.31,NNW,336,17.0,-999.0,37,-99.99,,,0.00,717,weatherlink.com 1.10,2013-02-27 18:19:00,
2013-02-27 11:35:00,37.3,11.0,30.30,NNW,329,14.0,-999.0,34,-99.99,,,0.00,729,weatherlink.com 1.10,2013-02-27 18:35:00,
2013-02-27 11:51:00,37.7,12.0,30.30,WNW,298,10.0,-999.0,34,-99.99,,,0.00,737,weatherlink.com 1.10,2013-02-27 18:51:00,
2013-02-27 12:04:00,38.2,11.0,30.30,North,351,6.0,-999.0,32,-99.99,,,0.00,740,weatherlink.com 1.10,2013-02-27 19:04:00,
2013-02-27 12:20:00,38.3,16.0,30.29,South,169,10.0,-999.0,41,-99.99,,,0.00,737,weatherlink.com 1.10,2013-02-27 19:20:00,
2013-02-27 12:36:00,38.2,16.0,30.29,SSW,194,9.0,-999.0,41,-99.99,,,0.00,735,weatherlink.com 1.10,2013-02-27 19:36:00,
2013-02-27 12:51:00,37.6,16.0,30.29,South,182,9.0,-999.0,41,-99.99,,,0.00,724,weatherlink.com 1.10,2013-02-27 19:51:00,
2013-02-27 13:06:00,37.9,18.0,30.28,SSW,195,6.0,-999.0,44,-99.99,,,0.00,710,weatherlink.com 1.10,2013-02-27 20:06:00,
2013-02-27 13:20:00,37.9,17.0,30.28,SSW,200,9.0,-999.0,43,-99.99,,,0.00,694,weatherlink.com 1.10,2013-02-27 20:20:00,
2013-02-27 13:36:00,38.0,17.0,30.27,SSW,192,10.0,-999.0,43,-99.99,,,0.00,673,weatherlink.com 1.10,2013-02-27 20:36:00,
2013-02-27 13:52:00,38.0,18.0,30.27,South,181,11.0,-999.0,44,-99.99,,,0.00,649,weatherlink.com 1.10,2013-02-27 20:52:00,
2013-02-27 14:07:00,38.2,18.0,30.27,SSW,200,10.0,-999.0,45,-99.99,,,0.00,468,weatherlink.com 1.10,2013-02-27 21:07:00,
2013-02-27 14:21:00,37.5,18.0,30.27,SSW,205,10.0,-999.0,45,-99.99,,,0.00,584,weatherlink.com 1.10,2013-02-27 21:21:00,
2013-02-27 14:37:00,37.3,17.0,30.28,SSW,198,4.0,-999.0,43,-99.99,,,0.00,555,weatherlink.com 1.10,2013-02-27 21:37:00,
2013-02-27 14:53:00,37.5,17.0,30.27,South,180,7.0,-999.0,44,-99.99,,,0.00,513,weatherlink.com 1.10,2013-02-27 21:53:00,
2013-02-27 15:08:00,37.6,18.0,30.27,SSW,198,10.0,-999.0,46,-99.99,,,0.00,476,weatherlink.com 1.10,2013-02-27 22:08:00,
2013-02-27 15:23:00,37.5,18.0,30.27,SSW,198,10.0,-999.0,46,-99.99,,,0.00,432,weatherlink.com 1.10,2013-02-27 22:23:00,
2013-02-27 15:38:00,37.1,18.0,30.27,SSW,196,7.0,-999.0,47,-99.99,,,0.00,383,weatherlink.com 1.10,2013-02-27 22:38:00,
2013-02-27 15:53:00,36.1,18.0,30.27,SSW,198,11.0,-999.0,48,-99.99,,,0.00,156,weatherlink.com 1.10,2013-02-27 22:53:00,
2013-02-27 16:07:00,34.4,17.0,30.28,SSW,212,10.0,-999.0,50,-99.99,,,0.00,195,weatherlink.com 1.10,2013-02-27 23:07:00,
2013-02-27 16:24:00,33.6,18.0,30.28,South,186,9.0,-999.0,52,-99.99,,,0.00,105,weatherlink.com 1.10,2013-02-27 23:24:00,
2013-02-27 16:39:00,33.8,18.0,30.28,SSW,200,7.0,-999.0,52,-99.99,,,0.00,153,weatherlink.com 1.10,2013-02-27 23:39:00,
2013-02-27 16:54:00,33.7,18.0,30.28,SSW,204,8.0,-999.0,53,-99.99,,,0.00,95,weatherlink.com 1.10,2013-02-27 23:54:00,
2013-02-27 17:08:00,32.9,18.0,30.29,SW,215,3.0,-999.0,54,-99.99,,,0.00,47,weatherlink.com 1.10,2013-02-28 00:08:00,
2013-02-27 17:24:00,31.9,18.0,30.29,SSW,201,5.0,-999.0,56,-99.99,,,0.00,21,weatherlink.com 1.10,2013-02-28 00:24:00,
2013-02-27 17:38:00,30.6,17.0,30.30,SSW,196,5.0,-999.0,58,-99.99,,,0.00,11,weatherlink.com 1.10,2013-02-28 00:38:00,
2013-02-27 17:53:00,29.4,17.0,30.30,SSW,204,4.0,-999.0,60,-99.99,,,0.00,0,weatherlink.com 1.10,2013-02-28 00:53:00,
2013-02-27 18:08:00,28.1,17.0,30.30,SSW,193,2.0,-999.0,63,-99.99,,,0.00,0,weatherlink.com 1.10,2013-02-28 01:08:00,
2013-02-27 18:23:00,27.2,17.0,30.31,SSW,211,5.0,-999.0,65,-99.99,,,0.00,0,weatherlink.com 1.10,2013-02-28 01:23:00,
2013-02-27 18:39:00,26.2,16.0,30.31,SW,221,7.0,-999.0,66,-99.99,,,0.00,0,weatherlink.com 1.10,2013-02-28 01:39:00,
2013-02-27 18:55:00,25.9,17.0,30.32,SW,220,6.0,-999.0,68,-99.99,,,0.00,0,weatherlink.com 1.10,2013-02-28 01:55:00,
2013-02-27 19:10:00,25.6,16.0,30.32,SW,227,4.0,-999.0,68,-99.99,,,0.00,0,weatherlink.com 1.10,2013-02-28 02:10:00,
2013-02-27 19:25:00,25.2,16.0,30.33,SW,228,3.0,-999.0,69,-99.99,,,0.00,0,weatherlink.com 1.10,2013-02-28 02:25:00,
2013-02-27 19:40:00,24.2,15.0,30.33,SW,229,4.0,-999.0,68,-99.99,,,0.00,0,weatherlink.com 1.10,2013-02-28 02:40:00,
2013-02-27 19:55:00,23.7,15.0,30.33,SW,227,3.0,-999.0,69,-99.99,,,0.00,0,weatherlink.com 1.10,2013-02-28 02:55:00,
2013-02-27 20:11:00,23.8,15.0,30.33,SW,230,3.0,-999.0,70,-99.99,,,0.00,0,weatherlink.com 1.10,2013-02-28 03:11:00,
2013-02-27 20:26:00,24.3,15.0,30.33,SW,226,4.0,-999.0,69,-99.99,,,0.00,0,weatherlink.com 1.10,2013-02-28 03:26:00,
2013-02-27 20:40:00,23.9,15.0,30.33,SSW,207,4.0,-999.0,69,-99.99,,,0.00,0,weatherlink.com 1.10,2013-02-28 03:40:00,
2013-02-27 20:56:00,23.8,15.0,30.33,SW,217,5.0,-999.0,68,-99.99,,,0.00,0,weatherlink.com 1.10,2013-02-28 03:56:00,
2013-02-27 21:27:00,23.4,14.0,30.33,SW,232,5.0,-999.0,68,-99.99,,,0.00,0,weatherlink.com 1.10,2013-02-28 04:27:00,
2013-02-27 21:41:00,23.8,14.0,30.33,SSW,210,3.0,-999.0,67,-99.99,,,0.00,0,weatherlink.com 1.10,2013-02-28 04:41:00,
2013-02-27 22:12:00,22.9,13.0,30.33,SW,216,3.0,-999.0,67,-99.99,,,0.00,0,weatherlink.com 1.10,2013-02-28 05:12:00,
2013-02-27 22:27:00,22.8,13.0,30.33,SW,216,2.0,-999.0,67,-99.99,,,0.00,0,weatherlink.com 1.10,2013-02-28 05:27:00,
2013-02-27 22:42:00,22.4,13.0,30.33,WSW,248,2.0,-999.0,67,-99.99,,,0.00,0,weatherlink.com 1.10,2013-02-28 05:42:00,
2013-02-27 22:58:00,22.3,13.0,30.32,SW,228,4.0,-999.0,68,-99.99,,,0.00,0,weatherlink.com 1.10,2013-02-28 05:58:00,
2013-02-27 23:12:00,22.7,14.0,30.32,SW,225,4.0,-999.0,69,-99.99,,,0.00,0,weatherlink.com 1.10,2013-02-28 06:12:00,
2013-02-27 23:28:00,23.0,14.0,30.32,SW,232,3.0,-999.0,67,-99.99,,,0.00,0,weatherlink.com 1.10,2013-02-28 06:28:00,
2013-02-27 23:43:00,23.0,14.0,30.32,SW,232,0.0,-999.0,67,-99.99,,,0.00,0,weatherlink.com 1.10,2013-02-28 06:43:00,
2013-02-27 23:58:00,22.6,13.0,30.32,NE,42,1.0,-999.0,68,-99.99,,,0.00,0,weatherlink.com 1.10,2013-02-28 06:58:00,